Погода в Сорске

Россия / Республика Хакасия     54°00′09″N   90°15′11″E
темп.,
°C
ветер,
м/с
пор.,
м/с
влажн.,
%
обл.,
%
осадки,
мм/ч
давл.,
гПа
погр.,
м
20 апреля, вт
вт2001:00−9ссз576193 0.0 1021766
04:00−9сз356298 0.0 1022737
07:00−10сз356898 0.1 1023697
10:00−8з3358100 0.4 10221181
13:00−6зсз6637100 0.6 10212031
16:00−5зсз7636100 0.0 10221901
19:00−6зсз664545 0.0 10231183
22:00−8сз356110 0.0 1025655
21 апреля, ср
ср2101:00−9сз116424 0.0 1026197
04:00−10ю116786 0.0 1026121
07:00−10ю247576 0.0 1027381
10:00−7ююв3453100 0.0 10261007
13:00−4ююв3339100 0.0 10241419
16:00−3юв3232100 0.0 10231689
19:00−3вюв3337100 0.0 10241270
22:00−6св255773 0.0 1027347
22 апреля, чт
чт2201:00−7с367568 0.0 1029416
04:00−8ссз247351 0.0 1031178
07:00−7ссз37715 0.0 1033495
10:00−4с674522 0.0 10341240
13:00−1ссв6639100 0.0 10341897
16:00−1ссв6747100 0.1 10361816
19:00−3ссв675599 0.2 10381149
22:00−5ссв5107846 0.0 1041605
23 апреля, пт
пт2301:00−5с498255 0.0 1041517
04:00−6с378822 0.0 1041312
07:00−5с48805 0.0 1041383
10:00−1ссв68506 0.0 1040807
13:00+2св7947100 0.0 10381162
16:00+2св8952100 0.0 10361270
19:00+1ссв6968100 0.0 10361024
22:00−1с4880100 0.0 1036425
24 апреля, сб
сб2401:00−2ссз3681100 0.0 1034406
04:00−3сз2591100 0.1 1033386
07:00−3сз3585100 0.5 1032493
10:00−2сз3578100 0.4 1030666
13:00+1сз3464100 0.4 10291040
16:00+2ссз3358100 0.0 10281060
19:00+1ссв1173100 0.1 1029571
22:00−1с0086100 0.3 103042